Caumont Avignon, France

10:31 AM CEST on May 22, 2018 (GMT +0200)
Caumont

Weather History for LFMV - January, 2013

Change the Weather History Date:

Wednesday, January 30, 2013

  Actual Average Record
Temperature  
Mean Temperature 48 °F -  
Max Temperature 64 °F - - ()
Min Temperature 32 °F - - ()
Degree Days  
Heating Degree Days 17    
Moisture  
Dew Point 41 °F    
Average Humidity 83    
Maximum Humidity 100    
Minimum Humidity 52    
Precipitation  
Precipitation 0.00 in - - ()
Sea Level Pressure  
Sea Level Pressure 30.22 in    
Wind  
Wind Speed 2 mph ()    
Max Wind Speed 5 mph    
Max Gust Speed -    
Visibility 5.8 miles    
Events      
T = Trace of Precipitation, MM = Missing Value Source: Averaged Metar Reports

Daily Weather History Graph

Daily Weather History Graph

Search for Another Location

Airport or City:

Astronomy

Jan. 30, 2013 Rise Set
Actual Time 7:59 AM CET 5:48 PM CET
Civil Twilight 7:28 AM CET 6:19 PM CET
Nautical Twilight 6:54 AM CET 6:53 PM CET
Astronomical Twilight 6:20 AM CET 7:27 PM CET
Moon 9:40 PM CET (1/30) 9:10 AM CET (1/30)
Length of Visible Light 10h 50m
Length of Day
9h 48m
Waning Gibbous, 89% of the Moon is Illuminated
Jan 30
Waning Gibbous
Feb 3
Last Quarter
Feb 10
New
Feb 17
First Quarter
Feb 25
Full

Hourly Weather History & Observations

Time (CET) Temp. Windchill Dew Point Humidity Pressure Visibility Wind Dir Wind Speed Gust Speed Precip Events Conditions
12:00 AM 41.0 °F - 37.4 °F 87% 30.27 in 6.2 mi Variable 2.3 mph - N/A   Unknown
12:30 AM 41.0 °F 38.0 °F 37.4 °F 87% 30.24 in 6.2 mi North 4.6 mph - N/A   Unknown
1:00 AM 39.2 °F - 35.6 °F 87% 30.24 in 6.2 mi Variable 2.3 mph - N/A   Unknown
1:30 AM 37.4 °F - 35.6 °F 93% 30.24 in 6.2 mi ESE 1.2 mph - N/A   Unknown
2:00 AM 37.4 °F - 35.6 °F 93% 30.24 in 6.2 mi Variable 2.3 mph - N/A   Unknown
2:30 AM 35.6 °F - 33.8 °F 93% 30.24 in 6.2 mi Calm Calm - N/A   Unknown
3:00 AM 35.6 °F - 33.8 °F 93% 30.24 in 6.2 mi North 2.3 mph - N/A   Unknown
3:30 AM 33.8 °F - 33.8 °F 100% 30.24 in 6.2 mi Calm Calm - N/A   Unknown
4:00 AM 35.6 °F - 35.6 °F 100% 30.24 in 6.2 mi Variable 2.3 mph - N/A   Unknown
4:30 AM 33.8 °F 30.8 °F 33.8 °F 100% 30.24 in 5.0 mi SSE 3.5 mph - N/A   Unknown
5:00 AM 33.8 °F - 33.8 °F 100% 30.24 in 5.0 mi SSE 2.3 mph - N/A   Unknown
5:30 AM 35.6 °F - 33.8 °F 93% 30.21 in 6.2 mi SSE 2.3 mph - N/A   Unknown
6:00 AM 33.8 °F - 32.0 °F 93% 30.21 in 5.6 mi Calm Calm - N/A   Unknown
6:30 AM 33.8 °F - 32.0 °F 93% 30.21 in 6.2 mi Calm Calm - N/A   Unknown
7:30 AM 33.8 °F - 33.8 °F 100% 30.24 in 3.7 mi SSW 1.2 mph - N/A   Unknown
8:00 AM 33.8 °F - 33.8 °F 100% 30.24 in 4.3 mi Variable 2.3 mph - N/A   Unknown
8:30 AM 32.0 °F - 32.0 °F 100% 30.24 in 3.7 mi SE 2.3 mph - N/A   Unknown
9:00 AM 35.6 °F 32.8 °F 35.6 °F 100% 30.24 in 4.3 mi SSE 3.5 mph - N/A   Unknown
9:30 AM 39.2 °F 37.0 °F 39.2 °F 100% 30.24 in 5.0 mi South 3.5 mph - N/A   Unknown
10:00 AM 42.8 °F 41.1 °F 39.2 °F 87% 30.24 in 5.0 mi Variable 3.5 mph - N/A   Unknown
10:30 AM 44.6 °F - 41.0 °F 87% 30.24 in 6.2 mi Calm Calm - N/A   Unknown
11:00 AM 50.0 °F - 41.0 °F 71% 30.24 in 6.2 mi Variable 1.2 mph - N/A   Unknown
12:00 PM 55.4 °F - 44.6 °F 67% 30.24 in 6.2 mi Calm Calm - N/A   Unknown
12:30 PM 55.4 °F - 42.8 °F 63% 30.24 in 6.2 mi Variable 2.3 mph - N/A   Unknown
1:00 PM 57.2 °F - 42.8 °F 59% 30.21 in 6.2 mi Variable 2.3 mph - N/A   Unknown
1:30 PM 59.0 °F - 44.6 °F 59% 30.21 in 6.2 mi Variable 2.3 mph - N/A   Unknown
2:00 PM 60.8 °F - 44.6 °F 55% 30.18 in 6.2 mi Calm Calm - N/A   Unknown
2:30 PM 62.6 °F - 46.4 °F 55% 30.18 in 6.2 mi Variable 1.2 mph - N/A   Unknown
3:00 PM 64.4 °F - 46.4 °F 52% 30.15 in 6.2 mi Variable 2.3 mph - N/A   Unknown
3:30 PM 64.4 °F - 46.4 °F 52% 30.15 in 6.2 mi Variable 2.3 mph - N/A   Unknown
4:00 PM 64.4 °F - 48.2 °F 56% 30.15 in 6.2 mi Variable 2.3 mph - N/A   Unknown
4:30 PM 64.4 °F - 48.2 °F 56% 30.15 in 6.2 mi Calm Calm - N/A   Unknown
5:00 PM 62.6 °F - 50.0 °F 63% 30.15 in 6.2 mi North 1.2 mph - N/A   Unknown
5:30 PM 60.8 °F - 50.0 °F 68% 30.15 in 6.2 mi Calm Calm - N/A   Unknown
6:00 PM 57.2 °F - 48.2 °F 72% 30.18 in 6.2 mi ESE 2.3 mph - N/A   Unknown
6:30 PM 51.8 °F - 46.4 °F 82% 30.18 in 6.2 mi East 3.5 mph - N/A   Unknown
7:00 PM 50.0 °F - 46.4 °F 87% 30.18 in 6.2 mi ESE 2.3 mph - N/A   Unknown
7:30 PM 48.2 °F - 44.6 °F 87% 30.21 in 6.2 mi East 1.2 mph - N/A   Unknown
8:00 PM 48.2 °F - 44.6 °F 87% 30.21 in 6.2 mi Calm Calm - N/A   Unknown
8:30 PM 46.4 °F - 44.6 °F 93% 30.21 in 6.2 mi ENE 1.2 mph - N/A   Unknown
9:00 PM 46.4 °F - 44.6 °F 93% 30.21 in 6.2 mi Variable 2.3 mph - N/A   Unknown
9:30 PM 46.4 °F - 44.6 °F 93% 30.21 in 5.6 mi Calm Calm - N/A   Overcast
10:00 PM 44.6 °F - 42.8 °F 93% 30.24 in 5.6 mi Calm Calm - N/A   Unknown
10:30 PM 44.6 °F - 44.6 °F 100% 30.24 in 4.3 mi Calm Calm - N/A   Unknown
11:00 PM 44.6 °F - 42.8 °F 93% 30.24 in 4.3 mi NNE 1.2 mph - N/A   Unknown
11:30 PM 46.4 °F - 44.6 °F 93% 30.24 in 5.6 mi Variable 2.3 mph - N/A   Unknown